Flag for Switzerland Weather past 2 weeks in Oftringen, Aargau, Switzerland

Now
65 °F

Mild.


Feels Like: 65 °F
Forecast: 60 / 76 °F
Wind: 3 mph from Southwest

Location: Wynau

Current Time: Jul 22, 2014 at 9:49:07 PM

Latest Report: Jul 22, 2014 at 6:00 PM


Visibility: N/A

Pressure: 29.97 "Hg

Humidity: 98%

Dew point: 64 °F

Location of OftringenLocation

Historic Weather in Oftringen — Graph

°F

Oftringen temperature yesterday

Maximum temperature yesterday: 67 °F (at 2:00 PM)
Minimum temperature yesterday: 58 °F (at 3:00 AM)
Average temperature yesterday: 62 °F

Past Weeks' High & Low Weather Summary

 TemperatureHumidityPressure
High88 °F (Jul 18, 5:00 PM)99% (Jul 21, 2:00 AM)30.22 "Hg (Jul 21, 2:00 AM)
Low50 °F (Jul 10, 6:00 AM)27% (Jul 18, 7:00 PM)29.82 "Hg (Jul 20, 12:00 AM)
Average64 °F82%29.99 "Hg
* Reported Jul 7 6:00 PM — Jul 22 6:00 PM, Oftringen, Weather by CustomWeather, © 2014

Note: Actual official high and low records may vary slightly from our data, if they occured in-between our weather recording intervals... More about our weather records

Advertising

Oftringen weather history for previous 24 hours

 ConditionsComfort  
Time TempWeatherWind HumidityBarometerVisibility
6:00 PM
Jul 22
65 °FMild.3 mph98%29.97 "HgN/A
5:00 PM65 °FMild.3 mph97%29.97 "HgN/A
4:00 PM65 °FMild.3 mph98%29.97 "HgN/A
3:00 PM65 °FMild.5 mph96%29.96 "HgN/A
2:00 PM65 °FMild.5 mph92%29.96 "HgN/A
1:00 PM65 °FMild.5 mph96%29.96 "HgN/A
12:00 PM64 °FMild.5 mph97%29.96 "HgN/A
11:00 AM64 °FMild.6 mph96%29.95 "HgN/A
10:00 AM63 °FMild.6 mph97%29.95 "HgN/A
9:00 AM62 °FMild.3 mph98%29.95 "HgN/A
8:00 AM62 °FCool.3 mph99%29.94 "HgN/A
7:00 AM61 °FCool.2 mph99%29.94 "HgN/A
6:00 AM61 °FCool.3 mph99%29.94 "HgN/A
5:00 AM61 °FCool.3 mph98%29.94 "HgN/A
4:00 AM61 °FCool.5 mph98%29.93 "HgN/A
3:00 AM61 °FCool.3 mph97%29.95 "HgN/A
2:00 AM61 °FCool.6 mph98%29.96 "HgN/A
1:00 AM60 °FCool.5 mph98%29.97 "HgN/A
12:00 AM61 °FCool.5 mph98%29.97 "HgN/A
11:00 PM
Jul 21
61 °FCool.5 mph98%29.97 "HgN/A
10:00 PM62 °FCool.5 mph97%29.97 "HgN/A
9:00 PM62 °FCool.3 mph97%29.96 "HgN/A
Weather by CustomWeather, © 2014

See weather overviewHow to use our weather pages